This is the latest recevied weather packets stored in our database for station/object WX6HNX-14. If no packets are shown the sender has not sent any weather packets the latest 10 day(s).
| Time | Temp. | Humidity | Pressure | Rain* | Wind** | Luminosity | Snow |
|---|---|---|---|---|---|---|---|
| 1777849704 | 25° C | 44% | 1009.1 hPa | 0 mm | - | - | - |
| 1777849404 | 25° C | 44% | 1009.2 hPa | 0 mm | - | - | - |
| 1777849105 | 24.44° C | 44% | 1009.2 hPa | 0 mm | - | - | - |
| 1777848804 | 24.44° C | 45% | 1009.2 hPa | 0 mm | - | - | - |
| 1777848504 | 24.44° C | 45% | 1009.3 hPa | 0 mm | - | - | - |
| 1777848205 | 24.44° C | 44% | 1009.5 hPa | 0 mm | - | - | - |
| 1777847707 | 25° C | 44% | 1009.5 hPa | 0 mm | - | - | - |
| 1777847406 | 24.44° C | 43% | 1009.7 hPa | 0 mm | - | - | - |
| 1777847106 | 24.44° C | 43% | 1009.7 hPa | 0 mm | - | - | - |
| 1777846807 | 24.44° C | 44% | 1009.8 hPa | 0 mm | - | - | - |
| 1777846506 | 23.89° C | 45% | 1010 hPa | 0 mm | - | - | - |
| 1777846207 | 23.89° C | 45% | 1010.1 hPa | 0 mm | - | - | - |
| 1777845906 | 23.89° C | 46% | 1010.1 hPa | 0 mm | - | - | - |
| 1777845440 | 23.89° C | 46% | 1010.1 hPa | 0 mm | - | - | - |
| 1777845012 | 23.89° C | 46% | 1010.2 hPa | 0 mm | - | - | - |
| 1777844330 | 23.89° C | 46% | 1010.4 hPa | 0 mm | - | - | - |
| 1777843736 | 23.89° C | 47% | 1010.3 hPa | 0 mm | - | - | - |
| 1777843342 | 23.89° C | 47% | 1010.4 hPa | 0 mm | - | - | - |
| 1777842983 | 23.33° C | 47% | 1010.4 hPa | 0 mm | - | - | - |
| 1777842683 | 23.33° C | 48% | 1010.5 hPa | 0 mm | - | - | - |
| 1777842073 | 23.33° C | 48% | 1010.6 hPa | 0 mm | - | - | - |
| 1777841526 | 23.33° C | 47% | 1010.8 hPa | 0 mm | - | - | - |
| 1777841225 | 22.78° C | 48% | 1010.8 hPa | 0 mm | - | - | - |
| 1777840926 | 22.78° C | 49% | 1010.8 hPa | 0 mm | - | - | - |
| 1777840626 | 22.78° C | 49% | 1010.8 hPa | 0 mm | - | - | - |
* Rain latest hour (hover to see other rain measurements)
** Current wind speed in m/s (hover to see current wind gust speed)